Regional Weather Roundup
Issued by NWS Jackson, KY

Home | Current Version | Previous Version | Graphics & Text | Print | Product List | Glossary On
Versions: 1 2 3 4 5 6 7 8 9 10 11 12 13 14 15 16 17 18 19 20 21 22 23 24 25 26 27 28 29 30 31 32 33 34 35 36 37 38 39 40 41 42 43 44 45 46 47 48 49 50
000
ASUS43 KJKL 200005
RWRJKL

EAST KENTUCKY HOURLY WEATHER ROUNDUP
NATIONAL WEATHER SERVICE JACKSON KY
800 PM EDT FRI SEP 19 2014

NOTE: "FAIR" INDICATES FEW OR NO CLOUDS BELOW 12,000 FEET WITH
NO SIGNIFICANT WEATHER AND/OR OBSTRUCTIONS TO VISIBILITY.

* THESE REPORTS ARE NOT UNDER NWS QUALITY CONTROL AND MAY NOT
  REPORT WEATHER SUCH AS PRECIPITATION AND FOG.

KYZ079-080-083-085-087-088-110-112-115-119-120-200100
...EASTERN KENTUCKY...

CITY           SKY/WX    TMP DP  RH WIND       PRES   REMARKS
JACKSON        CLEAR     70  62  76 CALM      30.11S
6HR MIN TEMP:  70; 6HR MAX TEMP:  78;

LONDON         CLEAR     72  62  71 CALM      30.10R
6HR MIN TEMP:  72; 6HR MAX TEMP:  80;

SOMERSET*      CLEAR     72  61  68 CALM      30.09R
MONTICELLO*    CLEAR     69  63  81 CALM      30.09R
6HR MIN TEMP:  69; 6HR MAX TEMP:  83;

MIDDLESBORO*   CLEAR     68  61  78 W3        30.11R
6HR MIN TEMP:  68; 6HR MAX TEMP:  81;

HARLAN APT*    CLEAR     68  61  77 MISG      30.12R
BLACK MTN*       N/A     61  59  94 NE1         N/A
PIKEVILLE APT* MOCLDY    72  64  78 CALM      30.12R
BIG SANDY*     CLEAR     69  65  88 NE3       30.11S
6HR MIN TEMP:  69; 6HR MAX TEMP:  78;

MOREHEAD APT*  CLEAR     70  59  68 CALM      30.12S
$$

KYZ035-036-041-042-044-050-067-078-099-200100
...CENTRAL KENTUCKY...

CITY           SKY/WX    TMP DP  RH WIND       PRES   REMARKS
MT STERLING*   CLEAR     70  59  68 CALM      30.11R
FLEMING/MASON* CLEAR     69  56  63 CALM      30.10S
DANVILLE*      CLEAR     64  59  82 CALM      30.09S
RICHMOND*      CLEAR     70  59  68 CALM      30.08S
LEXINGTON      CLEAR     73  56  54 E3        30.08S
6HR MIN TEMP:  73; 6HR MAX TEMP:  79;

FRANKFORT      CLEAR     66  57  72 CALM      30.07S
6HR MIN TEMP:  66; 6HR MAX TEMP:  77;

$$

KYZ091>093-OHZ055-061-077-WVZ005-015-034-035-042-200100
...SOUTHERN OHIO/WEST VIRGINIA...

CITY           SKY/WX    TMP DP  RH WIND       PRES   REMARKS
COVINGTON      PTCLDY    68  50  52 SE3       30.08S
COLUMBUS       PTCLDY    69  50  50 NE5       30.10S
DAYTON         PTCLDY    68  47  46 SE3       30.10F
WILMINGTON     CLEAR     63  51  65 CALM      30.10S
HUNTINGTON     CLEAR     71  62  73 CALM      30.09S
CHARLESTON     PTCLDY    69  61  75 E6        30.12S
PINEVILLE*     CLEAR     67  62  85 MISG      30.22S
BECKLEY        CLEAR     61  54  77 SE13G21   30.22S
BLUEFIELD      MOCLDY    62  55  77 VRB5      30.24S
$$

VAZ002-007-008-TNZ017-027-036-066-071-200100
...SOUTHWEST VIRGINIA/EAST TENNESSEE...

CITY           SKY/WX    TMP DP  RH WIND       PRES   REMARKS
WISE*          PTCLDY    68  55  64 S7        30.20R
JONESVILLE*    CLOUDY    72  64  78 CALM      30.13R
ABINGDON*      CLEAR     69  56  64 CALM      30.19R
BRISTOL        PTCLDY    70  56  61 SE8       30.16R
KNOXVILLE      MOCLDY    75  63  66 E3        30.08R
OAK RIDGE      PTCLDY    75  66  73 CALM      30.09R
CROSSVILLE     CLEAR     69  62  78 CALM      30.11S
NASHVILLE      PTCLDY    80  63  55 NE7       30.02S
$$

...KEY TO REMARKS...
VSB - VISIBILITY IN MILES
WCI - WIND CHILL INDEX
HX  - HEAT INDEX

$$



USA.gov is the U.S. government's official web portal to all federal, state and local government web resources and services.